Tracking 31027 objects as of 19-Jul-2025
HD Live streaming from Space Station
objects crossing your sky now

SL-8 R/B

Track SL-8 R/B now!
10-day predictions


NORAD ID: 13649
Int'l Code: 1982-109B
Perigee: 758.2 km
Apogee: 783.4 km
Inclination: 74.0 °
Period: 100.1 minutes
Semi major axis: 7141 km
RCS: 4.6386 m2 (large)
Launch date: November 11, 1982
Source: Commonwealth of Independent States (former USSR) (CIS)
Launch site: PLESETSK MISSILE AND SPACE COMPLEX (PKMTR)

Note: This is a ROCKET BODY
Your satellite tracking list
Your tracking list is empty




NASA's NSSDC Master Catalog

Two Line Element Set (TLE):
1 13649U 82109B   25199.63709671  .00000204  00000-0  75444-4 0  9992
2 13649  74.0016 325.9207 0017672 151.9967 219.3919 14.38442873235718
Source of the keplerian elements: AFSPC